Observations for Trim Patrick St
| Time | AQI | Temp °C | Hum % | Pres Pa | CO μg/m³ | H₂S μg/m³ | NO μg/m³ | NO₂ μg/m³ | O₃ μg/m³ | SO₂ μg/m³ | PM1 μg/m³ | PM2.5 μg/m³ | PM10 μg/m³ |
|---|---|---|---|---|---|---|---|---|---|---|---|---|---|
| Friday 31 July 2026 | |||||||||||||
| 13:26 | 2 | 24.2 | 38 | 68,873 | 0 | 0 | 1.69 | 8.4 | 93.02 | 6.38 | 2.86 | 8.77 | 9.65 |
| 13:25 | 2 | 24.2 | 38 | 68,884 | 0 | 0.12 | 1.68 | 8.52 | 92.28 | 6.48 | 2.86 | 8.77 | 9.64 |
| 13:24 | 2 | 24.2 | 38 | 68,871 | 0 | 0 | 2.02 | 8.65 | 95.75 | 6.18 | 2.86 | 8.73 | 9.6 |
| 13:23 | 2 | 24.2 | 38 | 68,884 | 0 | 0 | 1.91 | 6.13 | 69.17 | 7.01 | 3.71 | 9.54 | 10.49 |
| 13:22 | 2 | 24.2 | 38 | 68,902 | 0 | 0 | 1.7 | 8.84 | 96.19 | 6.15 | 2 | 7.96 | 8.75 |
| 13:21 | 2 | 24.3 | 38 | 68,890 | 0 | 0 | 1.66 | 8.45 | 88.24 | 7.11 | 2.86 | 8.75 | 9.62 |
| 13:20 | 2 | 24.3 | 38 | 68,876 | 0 | 0.4 | 1.84 | 8.65 | 77.91 | 6.81 | 2.86 | 8.74 | 9.61 |
| 13:19 | 2 | 24.3 | 38 | 68,888 | 0 | 2.42 | 1.54 | 8.71 | 101.25 | 7.02 | 2 | 7.99 | 8.78 |
| 13:18 | 2 | 24.4 | 38 | 68,873 | 0 | 0.53 | 1.57 | 8.74 | 99.59 | 7.29 | 2.86 | 8.76 | 9.64 |
| 13:17 | 2 | 24.4 | 37 | 68,884 | 0 | 0 | 1.81 | 8.4 | 86.94 | 6.81 | 2.86 | 8.82 | 9.7 |
| 13:16 | 2 | 24.5 | 37 | 68,898 | 0 | 0 | 1.77 | 7.98 | 74.02 | 6.48 | 2 | 8 | 8.81 |
| 13:15 | 2 | 24.5 | 38 | 68,890 | 0 | 0 | 1.62 | 8.73 | 89.52 | 6.59 | 2 | 7.98 | 8.78 |
| 13:14 | 2 | 24.5 | 38 | 68,875 | 0 | 0 | 1.74 | 7.46 | 75.43 | 7.29 | 2 | 8.76 | 9.64 |
| 13:13 | 2 | 24.5 | 37 | 68,884 | 0 | 0 | 1.85 | 9.18 | 92.37 | 6.25 | 2.86 | 8.79 | 9.67 |
| 13:12 | 2 | 24.5 | 38 | 68,869 | 0 | 0 | 1.74 | 7.6 | 69.35 | 7.03 | 2.86 | 9.54 | 10.49 |
| 13:11 | 2 | 24.5 | 38 | 68,851 | 0 | 0 | 1.66 | 9.24 | 93.06 | 6.44 | 2 | 7.94 | 8.73 |
| 13:10 | 2 | 24.5 | 37 | 68,847 | 0 | 0 | 1.64 | 7.27 | 69.43 | 6.74 | 2.86 | 8.79 | 9.67 |
| 13:09 | 2 | 24.5 | 38 | 68,845 | 0 | 1.37 | 1.55 | 8.79 | 97.6 | 7.03 | 2 | 8.75 | 9.62 |
| 13:08 | 2 | 24.4 | 39 | 68,873 | 0 | 0.9 | 1.49 | 8.82 | 98.52 | 6.87 | 3.71 | 9.48 | 10.43 |
| 13:07 | 2 | 24.4 | 39 | 68,880 | 0 | 0.95 | 1.49 | 8.77 | 104.05 | 7.37 | 2.86 | 8.7 | 9.57 |